Weather History for Kelso-Longview, WA

Change the Weather History Date:

Sunday, April 13, 2014

  Actual Average Record
Temperature  
Mean Temperature 54 °F -  
Max Temperature 71 °F 56 °F 71 °F (2014)
Min Temperature 37 °F 38 °F 32 °F (1999)
Degree Days  
Heating Degree Days 11    
Growing Degree Days 4 (Base 50)    
Moisture  
Dew Point 36 °F    
Average Humidity 53    
Maximum Humidity 87    
Minimum Humidity 25    
Precipitation  
Precipitation 0.00 in - - ()
Sea Level Pressure  
Sea Level Pressure 30.24 in    
Wind  
Wind Speed 1 mph (West)    
Max Wind Speed 8 mph    
Max Gust Speed -    
Visibility 10 miles    
Events      
Averages and records for this station are not official NWS values.
T = Trace of Precipitation, MM = Missing Value Source: NWS Daily Summary

Daily Weather History Graph

Daily Weather History Graph

Search for Another Location

Airport:

Trip Planner

Search our weather history database for the weather conditions in past years. The results will help you decide how hot, cold, wet, or windy it might be!

Date:

Astronomy

Apr. 13, 2014 Rise Set
Actual Time 6:28 AM PDT 7:56 PM PDT
Civil Twilight 5:57 AM PDT 8:27 PM PDT
Nautical Twilight 5:19 AM PDT 9:05 PM PDT
Astronomical Twilight 4:39 AM PDT 9:46 PM PDT
Moon 6:36 PM PDT (4/13) 5:35 AM PDT (4/13)
Length of Visible Light 14h 30m
Length of Day
13h 27m
Waxing Gibbous, 97% of the Moon is Illuminated
Apr 13
Waxing Gibbous
Apr 15
Full
Apr 22
Last Quarter
Apr 28
New
May 6
First Quarter

Hourly Weather History & Observations

Time (PDT) Temp. Windchill Dew Point Humidity Pressure Visibility Wind Dir Wind Speed Gust Speed Precip Events Conditions
12:15 AM 46.4 °F 45.2 °F 35.6 °F 66% 30.17 in 10.0 mi North 3.5 mph - N/A   Clear
12:35 AM 46.4 °F - 35.6 °F 66% 30.19 in 10.0 mi Calm Calm - N/A   Clear
12:55 AM 46.4 °F - 35.6 °F 66% 30.20 in 10.0 mi Calm Calm - N/A   Clear
1:15 AM 44.6 °F - 35.6 °F 71% 30.21 in 10.0 mi Calm Calm - N/A   Clear
1:35 AM 44.6 °F - 35.6 °F 71% 30.21 in 10.0 mi Calm Calm - N/A   Clear
1:55 AM 44.6 °F - 35.6 °F 71% 30.21 in 10.0 mi Calm Calm - N/A   Clear
2:15 AM 44.6 °F - 35.6 °F 71% 30.21 in 10.0 mi Calm Calm - N/A   Clear
2:35 AM 42.8 °F - 35.6 °F 76% 30.21 in 10.0 mi Calm Calm - N/A   Clear
2:55 AM 41.0 °F - 35.6 °F 81% 30.21 in 10.0 mi Calm Calm - N/A   Clear
3:15 AM 41.0 °F - 33.8 °F 76% 30.22 in 10.0 mi Calm Calm - N/A   Clear
3:35 AM 41.0 °F - 35.6 °F 81% 30.22 in 10.0 mi Calm Calm - N/A   Clear
3:55 AM 39.2 °F - 33.8 °F 81% 30.23 in 10.0 mi Calm Calm - N/A   Clear
4:15 AM 39.2 °F - 33.8 °F 81% 30.23 in 10.0 mi Calm Calm - N/A   Clear
4:35 AM 39.2 °F - 33.8 °F 81% 30.24 in 10.0 mi Calm Calm - N/A   Clear
4:55 AM 37.4 °F - 33.8 °F 87% 30.24 in 10.0 mi Calm Calm - N/A   Clear
5:15 AM 39.2 °F - 33.8 °F 81% 30.25 in 10.0 mi Calm Calm - N/A   Clear
5:35 AM 39.2 °F - 33.8 °F 81% 30.25 in 10.0 mi Calm Calm - N/A   Clear
5:55 AM 37.4 °F - 30.2 °F 75% 30.26 in 10.0 mi Calm Calm - N/A   Clear
6:15 AM 37.4 °F - 33.8 °F 87% 30.27 in 10.0 mi Calm Calm - N/A   Clear
6:35 AM 37.4 °F - 33.8 °F 87% 30.28 in 10.0 mi Calm Calm - N/A   Clear
6:55 AM 37.4 °F - 32.0 °F 81% 30.29 in 10.0 mi Calm Calm - N/A   Clear
7:15 AM 37.4 °F - 33.8 °F 87% 30.29 in 10.0 mi Calm Calm - N/A   Clear
7:35 AM 39.2 °F - 35.6 °F 87% 30.30 in 10.0 mi Calm Calm - N/A   Clear
7:55 AM 41.0 °F - 35.6 °F 81% 30.31 in 10.0 mi Calm Calm - N/A   Clear
8:35 AM 46.4 °F - 37.4 °F 71% 30.31 in 10.0 mi Calm Calm - N/A   Clear
8:55 AM 46.4 °F - 39.2 °F 76% 30.31 in 10.0 mi Calm Calm - N/A   Clear
9:15 AM 48.2 °F - 39.2 °F 71% 30.32 in 10.0 mi Calm Calm - N/A   Clear
9:35 AM 51.8 °F - 39.2 °F 62% 30.32 in 10.0 mi Calm Calm - N/A   Clear
9:55 AM 51.8 °F - 39.2 °F 62% 30.32 in 10.0 mi Calm Calm - N/A   Clear
10:15 AM 53.6 °F - 39.2 °F 58% 30.31 in 10.0 mi Calm Calm - N/A   Clear
10:35 AM 57.2 °F - 39.2 °F 51% 30.31 in 10.0 mi NW 3.5 mph - N/A   Clear
10:55 AM 57.2 °F - 39.2 °F 51% 30.31 in 10.0 mi NNW 4.6 mph - N/A   Clear
11:15 AM 60.8 °F - 37.4 °F 42% 30.31 in 10.0 mi WNW 3.5 mph - N/A   Clear
11:35 AM 60.8 °F - 39.2 °F 45% 30.31 in 10.0 mi Calm Calm - N/A   Clear
11:55 AM 62.6 °F - 37.4 °F 39% 30.31 in 10.0 mi NNE 4.6 mph - N/A   Clear
12:15 PM 64.4 °F - 37.4 °F 37% 30.30 in 10.0 mi WNW 4.6 mph - N/A   Clear
12:35 PM 64.4 °F - 39.2 °F 40% 30.29 in 10.0 mi NW 3.5 mph - N/A   Clear
12:55 PM 66.2 °F - 35.6 °F 32% 30.29 in 10.0 mi SW 3.5 mph - N/A   Clear
1:15 PM 66.2 °F - 33.8 °F 30% 30.27 in 10.0 mi Calm Calm - N/A   Clear
1:35 PM 68.0 °F - 35.6 °F 30% 30.28 in 10.0 mi Calm Calm - N/A   Clear
1:55 PM 68.0 °F - 33.8 °F 28% 30.27 in 10.0 mi WNW 3.5 mph - N/A   Clear
2:15 PM 69.8 °F - 35.6 °F 28% 30.26 in 10.0 mi SW 3.5 mph - N/A   Clear
2:35 PM 69.8 °F - 35.6 °F 28% 30.26 in 10.0 mi Calm Calm - N/A   Clear
2:55 PM 69.8 °F - 35.6 °F 28% 30.26 in 10.0 mi NW 5.8 mph - N/A   Clear
3:15 PM 69.8 °F - 35.6 °F 28% 30.25 in 10.0 mi WSW 5.8 mph - N/A   Clear
3:35 PM 71.6 °F - 37.4 °F 29% 30.24 in 10.0 mi WNW 4.6 mph - N/A   Clear
3:55 PM 71.6 °F - 37.4 °F 29% 30.23 in 10.0 mi WSW 4.6 mph - N/A   Clear
4:15 PM 71.6 °F - 37.4 °F 29% 30.23 in 10.0 mi SW 3.5 mph - N/A   Clear
4:35 PM 71.6 °F - 37.4 °F 29% 30.22 in 10.0 mi WSW 5.8 mph - N/A   Clear
4:55 PM 71.6 °F - 35.6 °F 27% 30.22 in 10.0 mi South 3.5 mph - N/A   Clear
5:15 PM 71.6 °F - 35.6 °F 27% 30.21 in 10.0 mi Calm Calm - N/A   Clear
5:35 PM 71.6 °F - 35.6 °F 27% 30.20 in 10.0 mi Calm Calm - N/A   Clear
5:55 PM 71.6 °F - 33.8 °F 25% 30.19 in 10.0 mi Calm Calm - N/A   Clear
6:15 PM 71.6 °F - 33.8 °F 25% 30.19 in 10.0 mi SSW 4.6 mph - N/A   Clear
6:35 PM 69.8 °F - 33.8 °F 27% 30.18 in 10.0 mi Calm Calm - N/A   Clear
6:55 PM 69.8 °F - 33.8 °F 27% 30.19 in 10.0 mi Calm Calm - N/A   Clear
7:15 PM 71.6 °F - 33.8 °F 25% 30.19 in 10.0 mi ESE 5.8 mph - N/A   Clear
7:35 PM 69.8 °F - 32.0 °F 25% 30.19 in 10.0 mi ESE 6.9 mph - N/A   Clear
7:55 PM 68.0 °F - 32.0 °F 26% 30.19 in 10.0 mi East 8.1 mph - N/A   Clear
8:15 PM 66.2 °F - 33.8 °F 30% 30.19 in 10.0 mi East 4.6 mph - N/A   Clear
8:35 PM 64.4 °F - 33.8 °F 32% 30.20 in 10.0 mi East 4.6 mph - N/A   Clear
8:55 PM 62.6 °F - 33.8 °F 34% 30.21 in 10.0 mi Calm Calm - N/A   Clear
9:15 PM 60.8 °F - 35.6 °F 39% 30.21 in 10.0 mi East 3.5 mph - N/A   Clear
9:35 PM 59.0 °F - 33.8 °F 39% 30.22 in 10.0 mi East 3.5 mph - N/A   Clear
9:55 PM 55.4 °F - 35.6 °F 47% 30.22 in 10.0 mi Calm Calm - N/A   Clear
10:15 PM 55.4 °F - 35.6 °F 47% 30.21 in 10.0 mi Calm Calm - N/A   Clear
10:35 PM 53.6 °F - 35.6 °F 51% 30.21 in 10.0 mi Calm Calm - N/A   Clear
10:55 PM 51.8 °F - 35.6 °F 54% 30.20 in 10.0 mi Calm Calm - N/A   Clear
11:15 PM 51.8 °F - 37.4 °F 58% 30.20 in 10.0 mi Calm Calm - N/A   Clear
11:35 PM 51.8 °F - 35.6 °F 54% 30.19 in 10.0 mi Calm Calm - N/A   Clear
11:55 PM 51.8 °F - 37.4 °F 58% 30.18 in 10.0 mi NW 3.5 mph - N/A   Clear